Time,TemperatureF,DewpointF,PressureIn,WindDirection,WindDirectionDegrees,WindSpeedMPH,WindSpeedGustMPH,Humidity,HourlyPrecipIn,Conditions,Clouds,dailyrainin,SoftwareType,DateUTC
2013-06-04 00:03:00,65.0,61.0,29.97,NE,35,0.0,0.0,87,0.00,,,0.65,,2013-06-04 04:03:00,
2013-06-04 00:13:00,65.0,61.0,29.97,NE,35,0.0,0.0,87,0.00,,,0.65,,2013-06-04 04:13:00,
2013-06-04 00:23:00,65.0,61.0,29.97,NE,35,0.0,0.0,87,0.00,,,0.65,,2013-06-04 04:23:00,
2013-06-04 00:33:00,64.0,61.0,29.99,NE,35,0.0,0.0,90,0.00,,,0.65,,2013-06-04 04:33:00,
2013-06-04 00:42:00,64.0,61.0,29.99,NE,35,0.0,0.0,90,0.00,,,0.65,,2013-06-04 04:42:00,
2013-06-04 00:53:00,64.0,61.0,29.99,NE,35,0.0,0.0,90,0.00,,,0.65,,2013-06-04 04:53:00,
2013-06-04 01:02:00,64.0,61.0,29.99,NE,35,0.0,0.0,90,0.00,,,0.65,,2013-06-04 05:02:00,
2013-06-04 01:12:00,64.0,61.0,29.99,NE,35,0.0,0.0,90,0.00,,,0.65,,2013-06-04 05:12:00,
2013-06-04 01:22:00,64.0,61.0,29.99,NE,35,0.0,0.0,90,0.00,,,0.65,,2013-06-04 05:22:00,
2013-06-04 01:32:00,63.0,60.0,29.99,NE,35,0.0,0.0,91,0.00,,,0.65,,2013-06-04 05:32:00,
2013-06-04 01:42:00,63.0,60.0,29.99,NE,35,0.0,0.0,91,0.00,,,0.65,,2013-06-04 05:42:00,
2013-06-04 01:52:00,63.0,60.0,29.99,NE,35,0.0,0.0,91,0.00,,,0.65,,2013-06-04 05:52:00,
2013-06-04 02:02:00,63.0,61.0,29.99,NNE,30,0.0,0.0,92,0.00,,,0.65,,2013-06-04 06:02:00,
2013-06-04 02:12:00,63.0,61.0,29.99,NNE,30,0.0,0.0,92,0.00,,,0.65,,2013-06-04 06:12:00,
2013-06-04 02:22:00,63.0,61.0,29.99,NNE,30,0.0,0.0,92,0.00,,,0.65,,2013-06-04 06:22:00,
2013-06-04 02:32:00,62.0,61.0,29.99,NNE,30,0.0,0.0,95,0.00,,,0.65,,2013-06-04 06:32:00,
2013-06-04 02:42:00,62.0,61.0,29.99,NNE,30,0.0,0.0,95,0.00,,,0.65,,2013-06-04 06:42:00,
2013-06-04 02:52:00,62.0,61.0,29.99,NNE,30,0.0,0.0,95,0.00,,,0.65,,2013-06-04 06:52:00,
2013-06-04 03:02:00,61.0,60.0,30.00,NNE,30,0.0,0.0,96,0.00,,,0.65,,2013-06-04 07:02:00,
2013-06-04 03:12:00,61.0,60.0,30.00,NNE,30,0.0,0.0,96,0.00,,,0.65,,2013-06-04 07:12:00,
2013-06-04 03:22:00,61.0,60.0,30.00,NNE,30,0.0,0.0,96,0.00,,,0.65,,2013-06-04 07:22:00,
2013-06-04 03:32:00,61.0,60.0,29.98,NNE,30,0.0,0.0,98,0.00,,,0.65,,2013-06-04 07:32:00,
2013-06-04 03:42:00,61.0,60.0,29.98,NNE,30,0.0,0.0,98,0.00,,,0.65,,2013-06-04 07:42:00,
2013-06-04 03:52:00,61.0,60.0,29.98,NNE,30,0.0,0.0,98,0.00,,,0.65,,2013-06-04 07:52:00,
2013-06-04 04:02:00,61.0,60.0,29.98,NNE,30,0.0,0.0,98,0.00,,,0.65,,2013-06-04 08:02:00,
2013-06-04 04:12:00,61.0,60.0,29.98,NNE,30,0.0,0.0,98,0.00,,,0.65,,2013-06-04 08:12:00,
2013-06-04 04:22:00,61.0,60.0,29.98,NNE,30,0.0,0.0,98,0.00,,,0.65,,2013-06-04 08:22:00,
2013-06-04 04:32:00,60.0,60.0,29.98,NNE,30,0.0,0.0,99,0.00,,,0.65,,2013-06-04 08:32:00,
2013-06-04 04:42:00,60.0,60.0,29.98,NNE,30,0.0,0.0,99,0.00,,,0.65,,2013-06-04 08:42:00,
2013-06-04 04:52:00,60.0,60.0,29.98,NNE,30,0.0,0.0,99,0.00,,,0.65,,2013-06-04 08:52:00,
2013-06-04 05:02:00,60.0,60.0,29.98,NNE,30,0.0,0.0,100,0.00,,,0.65,,2013-06-04 09:02:00,
2013-06-04 05:12:00,60.0,60.0,29.98,NNE,30,0.0,0.0,100,0.00,,,0.65,,2013-06-04 09:12:00,
2013-06-04 05:22:00,60.0,60.0,29.98,NNE,30,0.0,0.0,100,0.00,,,0.65,,2013-06-04 09:22:00,
2013-06-04 05:33:00,59.0,59.0,30.00,NNE,30,0.0,0.0,100,0.00,,,0.65,,2013-06-04 09:33:00,
2013-06-04 05:43:00,59.0,59.0,30.00,NNE,30,0.0,0.0,100,0.00,,,0.65,,2013-06-04 09:43:00,
2013-06-04 05:53:00,59.0,59.0,30.00,NNE,30,0.0,0.0,100,0.00,,,0.65,,2013-06-04 09:53:00,
2013-06-04 06:03:00,59.0,59.0,30.01,NNE,30,0.0,0.0,100,0.00,,,0.65,,2013-06-04 10:03:00,
2013-06-04 06:12:00,59.0,59.0,30.01,NNE,30,0.0,0.0,100,0.00,,,0.65,,2013-06-04 10:12:00,
2013-06-04 06:23:00,59.0,59.0,30.01,NNE,30,0.0,0.0,100,0.00,,,0.65,,2013-06-04 10:23:00,
2013-06-04 06:33:00,58.0,58.0,30.02,NNE,30,0.0,0.0,100,0.00,,,0.65,,2013-06-04 10:33:00,
2013-06-04 06:42:00,58.0,58.0,30.02,NNE,30,0.0,0.0,100,0.00,,,0.65,,2013-06-04 10:42:00,
2013-06-04 06:53:00,58.0,58.0,30.02,NNE,30,0.0,0.0,100,0.00,,,0.65,,2013-06-04 10:53:00,
2013-06-04 07:02:00,57.0,57.0,30.01,NNE,30,0.0,0.0,100,0.00,,,0.65,,2013-06-04 11:02:00,
2013-06-04 07:12:00,57.0,57.0,30.01,NNE,30,0.0,0.0,100,0.00,,,0.65,,2013-06-04 11:12:00,
2013-06-04 07:22:00,57.0,57.0,30.01,NNE,30,0.0,0.0,100,0.00,,,0.65,,2013-06-04 11:22:00,
2013-06-04 07:32:00,57.0,57.0,30.02,NNE,30,0.0,0.0,100,0.00,,,0.65,,2013-06-04 11:32:00,
2013-06-04 07:42:00,57.0,57.0,30.02,NNE,30,0.0,0.0,100,0.00,,,0.65,,2013-06-04 11:42:00,
2013-06-04 07:52:00,57.0,57.0,30.02,NNE,30,0.0,0.0,100,0.00,,,0.65,,2013-06-04 11:52:00,
2013-06-04 08:02:00,57.0,57.0,30.03,NNE,30,0.0,0.0,100,0.00,,,0.65,,2013-06-04 12:02:00,
2013-06-04 08:12:00,57.0,57.0,30.03,NNE,30,0.0,0.0,100,0.00,,,0.65,,2013-06-04 12:12:00,
2013-06-04 08:22:00,57.0,57.0,30.03,NNE,30,0.0,0.0,100,0.00,,,0.65,,2013-06-04 12:22:00,
2013-06-04 08:32:00,58.0,58.0,30.03,NNE,31,0.0,0.0,100,0.00,,,0.65,,2013-06-04 12:32:00,
2013-06-04 08:42:00,58.0,58.0,30.03,NNE,31,0.0,0.0,100,0.00,,,0.65,,2013-06-04 12:42:00,
2013-06-04 08:53:00,58.0,58.0,30.03,NNE,31,0.0,0.0,100,0.00,,,0.65,,2013-06-04 12:53:00,
2013-06-04 09:03:00,60.0,60.0,30.03,NNE,31,0.0,0.0,100,0.00,,,0.65,,2013-06-04 13:03:00,
2013-06-04 09:12:00,60.0,60.0,30.03,NNE,31,0.0,0.0,100,0.00,,,0.65,,2013-06-04 13:12:00,
2013-06-04 09:22:00,60.0,60.0,30.03,NNE,31,0.0,0.0,100,0.00,,,0.65,,2013-06-04 13:22:00,
2013-06-04 09:32:00,61.0,61.0,30.07,NNE,31,0.0,0.0,100,0.00,,,0.65,,2013-06-04 13:32:00,
2013-06-04 09:42:00,61.0,61.0,30.07,NNE,31,0.0,0.0,100,0.00,,,0.65,,2013-06-04 13:42:00,
2013-06-04 09:52:00,61.0,61.0,30.07,NNE,31,0.0,0.0,100,0.00,,,0.65,,2013-06-04 13:52:00,
2013-06-04 10:02:00,64.0,64.0,30.07,NNE,31,0.0,0.0,99,0.00,,,0.00,,2013-06-04 14:02:00,
2013-06-04 10:12:00,64.0,64.0,30.07,NNE,31,0.0,0.0,99,0.00,,,0.00,,2013-06-04 14:12:00,
2013-06-04 10:22:00,64.0,64.0,30.07,NNE,31,0.0,0.0,99,0.00,,,0.00,,2013-06-04 14:22:00,
2013-06-04 10:32:00,69.0,66.0,30.06,NNE,20,0.0,0.0,89,0.00,,,0.00,,2013-06-04 14:32:00,
2013-06-04 10:42:00,69.0,66.0,30.06,NNE,20,0.0,0.0,89,0.00,,,0.00,,2013-06-04 14:42:00,
2013-06-04 10:52:00,69.0,66.0,30.06,NNE,20,0.0,0.0,89,0.00,,,0.00,,2013-06-04 14:52:00,
2013-06-04 11:02:00,71.0,65.0,30.05,NNE,20,0.0,0.0,82,0.00,,,0.00,,2013-06-04 15:02:00,
2013-06-04 11:12:00,71.0,65.0,30.05,NNE,20,0.0,0.0,82,0.00,,,0.00,,2013-06-04 15:12:00,
2013-06-04 11:22:00,71.0,65.0,30.05,NNE,20,0.0,0.0,82,0.00,,,0.00,,2013-06-04 15:22:00,
2013-06-04 11:33:00,75.0,65.0,30.06,NNE,20,0.0,0.0,72,0.00,,,0.00,,2013-06-04 15:33:00,
2013-06-04 11:42:00,75.0,65.0,30.06,NNE,20,0.0,0.0,72,0.00,,,0.00,,2013-06-04 15:42:00,
2013-06-04 11:53:00,75.0,65.0,30.06,NNE,20,0.0,0.0,72,0.00,,,0.00,,2013-06-04 15:53:00,
2013-06-04 12:03:00,77.0,64.0,30.05,North,8,0.0,0.0,64,0.00,,,0.00,,2013-06-04 16:03:00,
2013-06-04 12:13:00,77.0,64.0,30.05,North,8,0.0,0.0,64,0.00,,,0.00,,2013-06-04 16:13:00,
2013-06-04 12:23:00,77.0,64.0,30.05,North,8,0.0,0.0,64,0.00,,,0.00,,2013-06-04 16:23:00,
2013-06-04 12:33:00,76.0,65.0,30.06,NNW,335,0.0,0.0,68,0.00,,,0.00,,2013-06-04 16:33:00,
2013-06-04 12:42:00,76.0,65.0,30.06,NNW,335,0.0,0.0,68,0.00,,,0.00,,2013-06-04 16:42:00,
2013-06-04 12:53:00,76.0,65.0,30.06,NNW,335,0.0,0.0,68,0.00,,,0.00,,2013-06-04 16:53:00,
2013-06-04 13:03:00,75.0,62.0,30.07,NE,55,0.0,0.0,64,0.00,,,0.00,,2013-06-04 17:03:00,
2013-06-04 13:12:00,75.0,62.0,30.07,NE,55,0.0,0.0,64,0.00,,,0.00,,2013-06-04 17:12:00,
2013-06-04 13:23:00,75.0,62.0,30.07,NE,55,0.0,0.0,64,0.00,,,0.00,,2013-06-04 17:23:00,
2013-06-04 13:33:00,75.0,62.0,30.07,NE,55,0.0,0.0,64,0.00,,,0.00,,2013-06-04 17:33:00,
2013-06-04 14:02:00,76.0,64.0,30.06,North,360,0.0,0.0,66,0.00,,,0.00,,2013-06-04 18:02:00,
2013-06-04 14:12:00,76.0,64.0,30.06,North,360,0.0,0.0,66,0.00,,,0.00,,2013-06-04 18:12:00,
2013-06-04 14:22:00,76.0,64.0,30.06,North,360,0.0,0.0,66,0.00,,,0.00,,2013-06-04 18:22:00,
2013-06-04 14:32:00,78.0,62.0,30.06,NNE,24,0.0,0.0,59,0.00,,,0.00,,2013-06-04 18:32:00,
2013-06-04 14:42:00,78.0,62.0,30.06,NNE,24,0.0,0.0,59,0.00,,,0.00,,2013-06-04 18:42:00,
2013-06-04 14:53:00,78.0,62.0,30.06,NNE,24,0.0,0.0,59,0.00,,,0.00,,2013-06-04 18:53:00,
2013-06-04 15:02:00,79.0,65.0,30.04,South,184,0.0,0.0,63,0.00,,,0.00,,2013-06-04 19:02:00,
2013-06-04 15:12:00,79.0,65.0,30.04,South,184,0.0,0.0,63,0.00,,,0.00,,2013-06-04 19:12:00,
2013-06-04 15:22:00,79.0,65.0,30.04,South,184,0.0,0.0,63,0.00,,,0.00,,2013-06-04 19:22:00,
2013-06-04 15:33:00,77.0,66.0,30.04,NE,37,0.0,0.0,68,0.00,,,0.00,,2013-06-04 19:33:00,
2013-06-04 15:42:00,77.0,66.0,30.04,NE,37,0.0,0.0,68,0.00,,,0.00,,2013-06-04 19:42:00,
2013-06-04 15:52:00,77.0,66.0,30.04,NE,37,0.0,0.0,68,0.00,,,0.00,,2013-06-04 19:52:00,
2013-06-04 16:03:00,75.0,66.0,30.02,ENE,61,0.0,0.0,73,0.00,,,0.00,,2013-06-04 20:03:00,
2013-06-04 16:12:00,75.0,66.0,30.02,ENE,61,0.0,0.0,73,0.00,,,0.00,,2013-06-04 20:12:00,
2013-06-04 16:22:00,75.0,66.0,30.02,ENE,61,0.0,0.0,73,0.00,,,0.00,,2013-06-04 20:22:00,
2013-06-04 16:32:00,73.0,64.0,30.03,East,82,0.0,0.0,74,0.00,,,0.00,,2013-06-04 20:32:00,
2013-06-04 16:42:00,73.0,64.0,30.03,East,82,0.0,0.0,74,0.00,,,0.00,,2013-06-04 20:42:00,
2013-06-04 16:53:00,73.0,64.0,30.03,East,82,0.0,0.0,74,0.00,,,0.00,,2013-06-04 20:53:00,
2013-06-04 17:02:00,73.0,64.0,30.03,East,85,0.0,0.0,74,0.00,,,0.00,,2013-06-04 21:02:00,
2013-06-04 17:12:00,73.0,64.0,30.03,East,85,0.0,0.0,74,0.00,,,0.00,,2013-06-04 21:12:00,
2013-06-04 17:22:00,73.0,64.0,30.03,East,85,0.0,0.0,74,0.00,,,0.00,,2013-06-04 21:22:00,
2013-06-04 17:33:00,72.0,64.0,30.03,East,85,0.0,0.0,77,0.00,,,0.00,,2013-06-04 21:33:00,
2013-06-04 17:42:00,72.0,64.0,30.03,East,85,0.0,0.0,77,0.00,,,0.00,,2013-06-04 21:42:00,
2013-06-04 17:53:00,72.0,64.0,30.03,East,85,0.0,0.0,77,0.00,,,0.00,,2013-06-04 21:53:00,
2013-06-04 18:02:00,71.0,64.0,30.03,East,85,0.0,0.0,78,0.00,,,0.00,,2013-06-04 22:02:00,
2013-06-04 18:13:00,71.0,64.0,30.03,East,85,0.0,0.0,78,0.00,,,0.00,,2013-06-04 22:13:00,
2013-06-04 18:22:00,71.0,64.0,30.03,East,85,0.0,0.0,78,0.00,,,0.00,,2013-06-04 22:22:00,
2013-06-04 18:32:00,71.0,64.0,30.04,East,85,0.0,0.0,78,0.00,,,0.00,,2013-06-04 22:32:00,
2013-06-04 18:42:00,71.0,64.0,30.04,East,85,0.0,0.0,78,0.00,,,0.00,,2013-06-04 22:42:00,
2013-06-04 18:52:00,71.0,64.0,30.04,East,85,0.0,0.0,78,0.00,,,0.00,,2013-06-04 22:52:00,
2013-06-04 19:02:00,71.0,64.0,30.04,East,85,0.0,0.0,79,0.00,,,0.00,,2013-06-04 23:02:00,
2013-06-04 19:12:00,71.0,64.0,30.04,East,85,0.0,0.0,79,0.00,,,0.00,,2013-06-04 23:12:00,
2013-06-04 19:22:00,71.0,64.0,30.04,East,85,0.0,0.0,79,0.00,,,0.00,,2013-06-04 23:22:00,
2013-06-04 19:32:00,71.0,65.0,30.04,East,85,0.0,0.0,80,0.00,,,0.00,,2013-06-04 23:32:00,
2013-06-04 19:42:00,71.0,65.0,30.04,East,85,0.0,0.0,80,0.00,,,0.00,,2013-06-04 23:42:00,
2013-06-04 19:52:00,71.0,65.0,30.04,East,85,0.0,0.0,80,0.00,,,0.00,,2013-06-04 23:52:00,
2013-06-04 20:02:00,70.0,64.0,30.05,East,85,0.0,0.0,82,0.00,,,0.00,,2013-06-05 00:02:00,
2013-06-04 20:12:00,70.0,64.0,30.05,East,85,0.0,0.0,82,0.00,,,0.00,,2013-06-05 00:12:00,
2013-06-04 20:22:00,70.0,64.0,30.05,East,85,0.0,0.0,82,0.00,,,0.00,,2013-06-05 00:22:00,
2013-06-04 20:33:00,69.0,63.0,30.05,East,85,0.0,0.0,82,0.00,,,0.00,,2013-06-05 00:33:00,
2013-06-04 20:42:00,69.0,63.0,30.05,East,85,0.0,0.0,82,0.00,,,0.00,,2013-06-05 00:42:00,
2013-06-04 20:52:00,69.0,63.0,30.05,East,85,0.0,0.0,82,0.00,,,0.00,,2013-06-05 00:52:00,
2013-06-04 21:02:00,69.0,63.0,30.07,East,85,0.0,0.0,82,0.00,,,0.00,,2013-06-05 01:02:00,
2013-06-04 21:12:00,69.0,63.0,30.07,East,85,0.0,0.0,82,0.00,,,0.00,,2013-06-05 01:12:00,
2013-06-04 21:22:00,69.0,63.0,30.07,East,85,0.0,0.0,82,0.00,,,0.00,,2013-06-05 01:22:00,
2013-06-04 21:32:00,68.0,63.0,30.06,East,85,0.0,0.0,84,0.00,,,0.00,,2013-06-05 01:32:00,
2013-06-04 21:42:00,68.0,63.0,30.06,East,85,0.0,0.0,84,0.00,,,0.00,,2013-06-05 01:42:00,
2013-06-04 21:52:00,68.0,63.0,30.06,East,85,0.0,0.0,84,0.00,,,0.00,,2013-06-05 01:52:00,
2013-06-04 22:02:00,68.0,64.0,30.07,East,85,0.0,0.0,86,0.00,,,0.00,,2013-06-05 02:02:00,
2013-06-04 22:12:00,68.0,64.0,30.07,East,85,0.0,0.0,86,0.00,,,0.00,,2013-06-05 02:12:00,
2013-06-04 22:22:00,68.0,64.0,30.07,East,85,0.0,0.0,86,0.00,,,0.00,,2013-06-05 02:22:00,
2013-06-04 22:32:00,68.0,64.0,30.09,East,85,0.0,0.0,87,0.00,,,0.00,,2013-06-05 02:32:00,
2013-06-04 22:42:00,68.0,64.0,30.09,East,85,0.0,0.0,87,0.00,,,0.00,,2013-06-05 02:42:00,
2013-06-04 22:52:00,68.0,64.0,30.09,East,85,0.0,0.0,87,0.00,,,0.00,,2013-06-05 02:52:00,
2013-06-04 23:02:00,67.0,63.0,30.11,East,85,0.0,0.0,87,0.00,,,0.00,,2013-06-05 03:02:00,
2013-06-04 23:12:00,67.0,63.0,30.11,East,85,0.0,0.0,87,0.00,,,0.00,,2013-06-05 03:12:00,
2013-06-04 23:22:00,67.0,63.0,30.11,East,85,0.0,0.0,87,0.00,,,0.00,,2013-06-05 03:22:00,
2013-06-04 23:33:00,67.0,63.0,30.10,East,85,0.0,0.0,88,0.00,,,0.00,,2013-06-05 03:33:00,
2013-06-04 23:43:00,67.0,63.0,30.10,East,85,0.0,0.0,88,0.00,,,0.00,,2013-06-05 03:43:00,
2013-06-04 23:53:00,67.0,63.0,30.10,East,85,0.0,0.0,88,0.00,,,0.00,,2013-06-05 03:53:00,